Kosmos-2234

operational
NORAD ID: 22512 Int'l Des: 1993-010 Owner: VKS Country: RU Constellation: GLONASS
MEOCIRCULAR

关于 Kosmos-2234

正在加载描述...

实时位置

正在加载3D地球...

即将过境

高度历史

Altitude vs Time

uPlot chart will show altitude changes over time

两行轨道根数

1 22512U 93010A 26068.45528022 .00000009 00000-0 00000+0 0 9993
2 22512 64.8433 73.4912 0022554 217.5407 139.9044 2.13103579257007
Epoch: Mar 9, 2026 • Age: 123 hours

当前状态

高度 19173.2 km
速度 3.95 km/s
星下点 -4.71°S, 152.58°W
发射日期 Feb 17, 1993
运行时间 33 years
类型 other

技术详情

分类 Payload
质量 1300.00 kg
干质量 1200.00 kg
总质量 1300.00 kg
长度 4.00 m
直径 1.50 m
跨度 7.80 m
形状 Cyl + Ant + 2 Pan
制造商 POL
平台类型 Uragan
阶段状态 In Orbit
所有者/国家 VKS/RU

大型星座

Loading constellations...